STARLINK-31589, 59654

Orbit data source: Space-Track

STARLINK-31589, 59654 is a payload satellite owned by SpaceX/Seattle (US) in LEO that was launched on Mon, 06 May 2024 UTC via an FALCON 9 launch vehicle from the Air Force Eastern Test Range (AFETR). Payload-class satellites include a variety of spacecraft equipped with specific instruments for various scientific and technological missions. These include communications satellites like Starlink; space stations such as the ISS; scientific satellites like the Hubble; Earth observation satellites from companies like Planet Labs, Umbra, and HawkEye 360; GPS; miniature CubeSats for education and research; and military/defense satellites.

Loading next visibility...
Identifier
59654, 2024-084A
Orbit
LEO
Country
Flag of USUS
Related business
Manufacturer
SpaceX/Seattle
Mission
Operational spacecraft
Bus & Motor
STARLINK V2M, Unknown motor
Mass
730 kg wet, ~700 kg dry
Launch date (UTC)
2024-05-06 (1 year ago)
Launch vehicle
FALCON 9
Launch site
Air Force Eastern Test Range (AFETR)
Object type
Payload
Rocket body
Debris
Shape & HBR
Unknown
Radar Cross Section
Large (>1 m²)

Expand to show TLE details & history
Last TLE update: 10 hours ago

TLE from 10 hours ago
0 STARLINK-31589
1 59654U 24084A   25242.16316186  .00006238  00000-0  23603-3 0  9990
2 59654  43.0022  43.2711 0000805 297.5141  62.5629 15.27575325 75107
Epoch: 2025-08-30T03:54Z
TLE epoch observation values (Epoch: 2025-08-30T03:54:57.184Z)
Latitude
-0.00001°
Longitude
5.93141°
Altitude
482.584 km
Speed
7.626 km/s
True Right ascension
02h 53m 05s
True Declination
0° 00' 00"
Sunlit
Object was in full shadow at epoch
Visualization orbit readout
Latitude
Unknown
Longitude
Unknown
Altitude
Unknown
Speed
Unknown
Apparent Right ascension
Unknown
Apparent Declination
Unknown
Sunlit
N/A
Visualization observer readout
Local Sidereal Time
05:17:22
Azimuth
Unknown
Elevation
Unknown
Doppler factor
Unknown
Orbital elements
Apogee altitude
485.56 km
Perigee altitude
484.455 km
Semi-major axis
6,863.145 km
Eccentricity
0.00008
Inclination
43.0022°
RAAN
43.2711°
Arg. of periapsis
297.5141°
True anomaly
62.57109°
Mean anomaly
62.5629°
Eccentric anomaly
62.56699°
Mean motion
3.81732 °/min
Orbital period
94.31 mins
BSTAR
0.00023603
Loading maneuver chart data...
Computing Atmospheric mass density...
Loading historical data...
Loading historical data...
Loading historical data...
Loading historical data...
Loading historical data...
Loading historical data...
Loading historical data...

Documentation

Showing up to 5 results
|